Total_Precipitation_Accumulation
0.27 0.26 0.35 0.55 0.65 0.63 0.62 0.69 0.91 0.90 0.82 0.78 0.74 0.75 0.77 0.81 0.79 0.71 0.65 0.67 0.71 0.77 0.78 0.75 0.71 0.76 0.80 0.85 0.96 1.11 1.25 1.24 1.11 0.94 0.83 0.77 0.73 0.65 0.62 0.61 0.61 0.69 0.75 0.76
0.15 0.15 0.23 0.39 0.49 0.51 0.48 0.48 0.57 0.63 0.62 0.53 0.50 0.54 0.56 0.58 0.53 0.49 0.45 0.43 0.42 0.44 0.44 0.43 0.39 0.38 0.40 0.47 0.62 0.87 1.13 1.11 0.92 0.76 0.62 0.58 0.60 0.61 0.60 0.57 0.59 0.63 0.60 0.63
0.17 0.13 0.20 0.42 0.43 0.41 0.42 0.34 0.35 0.41 0.40 0.36 0.39 0.46 0.47 0.52 0.54 0.41 0.33 0.31 0.31 0.31 0.30 0.30 0.29 0.29 0.31 0.38 0.50 0.66 0.78 0.76 0.67 0.56 0.53 0.57 0.60 0.55 0.57 0.58 0.57 0.57 0.54 0.54
0.20 0.22 0.48 0.69 0.58 0.49 0.45 0.27 0.20 0.21 0.23 0.27 0.37 0.41 0.43 0.41 0.42 0.41 0.30 0.23 0.22 0.22 0.22 0.26 0.27 0.31 0.35 0.39 0.44 0.48 0.51 0.53 0.48 0.46 0.48 0.51 0.52 0.52 0.59 0.65 0.63 0.62 0.63 0.60
0.31 0.38 0.57 0.63 0.54 0.54 0.53 0.38 0.18 0.15 0.16 0.15 0.15 0.18 0.21 0.22 0.21 0.21 0.18 0.15 0.14 0.13 0.13 0.16 0.16 0.17 0.18 0.20 0.22 0.23 0.21 0.22 0.24 0.24 0.26 0.29 0.30 0.37 0.48 0.55 0.59 0.63 0.68 0.67
0.35 0.44 0.57 0.45 0.28 0.29 0.42 0.53 0.16 0.09 0.09 0.07 0.07 0.11 0.13 0.14 0.15 0.13 0.10 0.11 0.11 0.10 0.11 0.12 0.13 0.12 0.10 0.11 0.11 0.12 0.11 0.12 0.14 0.15 0.15 0.16 0.20 0.25 0.30 0.32 0.38 0.49 0.51 0.53
0.33 0.52 0.71 0.50 0.30 0.28 0.48 0.52 0.15 0.07 0.05 0.04 0.07 0.07 0.08 0.10 0.13 0.12 0.11 0.11 0.12 0.11 0.11 0.12 0.13 0.12 0.12 0.12 0.11 0.13 0.16 0.18 0.18 0.17 0.18 0.19 0.20 0.23 0.26 0.27 0.31 0.34 0.38 0.42
0.42 0.72 0.90 0.68 0.46 0.43 0.35 0.16 0.09 0.05 0.03 0.03 0.04 0.04 0.06 0.08 0.11 0.10 0.10 0.11 0.11 0.11 0.11 0.12 0.12 0.12 0.13 0.14 0.14 0.14 0.16 0.17 0.19 0.20 0.20 0.20 0.21 0.23 0.26 0.27 0.27 0.29 0.29 0.34
0.37 0.58 0.60 0.52 0.41 0.30 0.23 0.12 0.05 0.04 0.03 0.03 0.03 0.03 0.05 0.08 0.07 0.08 0.08 0.08 0.10 0.11 0.11 0.13 0.13 0.12 0.12 0.14 0.15 0.15 0.16 0.17 0.19 0.21 0.21 0.19 0.21 0.24 0.25 0.27 0.29 0.31 0.33 0.37
0.15 0.20 0.22 0.23 0.22 0.15 0.12 0.08 0.04 0.03 0.04 0.04 0.04 0.04 0.04 0.07 0.08 0.08 0.08 0.09 0.09 0.11 0.13 0.14 0.14 0.14 0.16 0.16 0.15 0.15 0.17 0.19 0.20 0.20 0.20 0.19 0.20 0.22 0.24 0.27 0.30 0.33 0.38 0.41
0.15 0.10 0.09 0.11 0.13 0.12 0.08 0.05 0.04 0.03 0.04 0.04 0.05 0.06 0.06 0.07 0.10 0.11 0.10 0.11 0.14 0.15 0.14 0.14 0.16 0.18 0.21 0.21 0.18 0.16 0.17 0.18 0.17 0.17 0.18 0.19 0.20 0.20 0.21 0.23 0.29 0.38 0.43 0.46
0.16 0.11 0.11 0.11 0.10 0.09 0.07 0.05 0.04 0.04 0.04 0.05 0.05 0.07 0.07 0.08 0.09 0.12 0.13 0.13 0.15 0.17 0.17 0.16 0.16 0.18 0.20 0.23 0.24 0.23 0.20 0.17 0.16 0.16 0.17 0.17 0.18 0.19 0.21 0.22 0.28 0.31 0.33 0.34
0.11 0.10 0.09 0.09 0.09 0.08 0.07 0.06 0.05 0.05 0.05 0.06 0.07 0.08 0.09 0.09 0.09 0.11 0.13 0.13 0.13 0.14 0.15 0.14 0.14 0.13 0.13 0.15 0.17 0.18 0.19 0.19 0.17 0.16 0.17 0.18 0.19 0.20 0.22 0.20 0.18 0.20 0.23 0.25
0.08 0.10 0.11 0.09 0.09 0.07 0.06 0.06 0.06 0.06 0.06 0.06 0.07 0.09 0.09 0.09 0.09 0.09 0.10 0.11 0.12 0.13 0.13 0.13 0.12 0.11 0.11 0.10 0.12 0.14 0.16 0.17 0.18 0.20 0.20 0.22 0.25 0.28 0.31 0.34 0.32 0.24 0.22 0.23
0.07 0.08 0.09 0.09 0.09 0.09 0.08 0.09 0.09 0.09 0.09 0.10 0.09 0.10 0.10 0.09 0.09 0.09 0.10 0.11 0.12 0.14 0.14 0.15 0.13 0.11 0.10 0.10 0.10 0.11 0.13 0.16 0.19 0.25 0.29 0.27 0.29 0.35 0.37 0.33 0.29 0.29 0.28 0.26
0.11 0.10 0.10 0.11 0.12 0.11 0.09 0.09 0.10 0.10 0.10 0.10 0.12 0.13 0.12 0.10 0.10 0.09 0.10 0.12 0.13 0.14 0.14 0.16 0.15 0.14 0.13 0.11 0.10 0.10 0.11 0.16 0.19 0.24 0.27 0.28 0.29 0.31 0.32 0.33 0.32 0.34 0.35 0.36
0.13 0.13 0.14 0.15 0.15 0.13 0.10 0.10 0.10 0.11 0.12 0.13 0.14 0.14 0.15 0.15 0.14 0.13 0.12 0.11 0.12 0.13 0.14 0.14 0.16 0.15 0.14 0.12 0.11 0.12 0.13 0.16 0.19 0.21 0.23 0.24 0.27 0.30 0.32 0.34 0.35 0.36 0.36 0.39
0.14 0.14 0.15 0.17 0.17 0.15 0.12 0.11 0.12 0.12 0.13 0.14 0.16 0.17 0.18 0.19 0.19 0.17 0.15 0.15 0.15 0.15 0.16 0.16 0.17 0.17 0.16 0.15 0.15 0.15 0.16 0.18 0.20 0.23 0.25 0.25 0.28 0.33 0.37 0.36 0.35 0.36 0.37 0.41
0.19 0.18 0.18 0.18 0.18 0.18 0.16 0.14 0.13 0.15 0.16 0.15 0.16 0.18 0.19 0.19 0.19 0.17 0.17 0.18 0.18 0.17 0.15 0.14 0.17 0.16 0.16 0.17 0.19 0.19 0.21 0.24 0.26 0.27 0.28 0.28 0.30 0.34 0.38 0.36 0.35 0.37 0.39 0.40
0.21 0.19 0.18 0.17 0.17 0.17 0.16 0.15 0.14 0.16 0.18 0.18 0.17 0.18 0.19 0.19 0.18 0.18 0.19 0.20 0.19 0.17 0.12 0.13 0.15 0.16 0.16 0.18 0.20 0.21 0.24 0.29 0.32 0.35 0.35 0.34 0.35 0.38 0.40 0.37 0.38 0.41 0.41 0.41
0.16 0.15 0.15 0.15 0.15 0.15 0.15 0.15 0.16 0.16 0.17 0.18 0.19 0.19 0.19 0.18 0.17 0.18 0.20 0.22 0.20 0.17 0.12 0.13 0.12 0.13 0.16 0.20 0.23 0.25 0.27 0.29 0.32 0.35 0.35 0.35 0.37 0.39 0.42 0.40 0.41 0.43 0.44 0.43
0.16 0.14 0.13 0.13 0.12 0.13 0.14 0.14 0.14 0.14 0.15 0.18 0.19 0.19 0.19 0.18 0.16 0.17 0.18 0.20 0.20 0.22 0.17 0.14 0.13 0.16 0.22 0.25 0.21 0.22 0.25 0.27 0.31 0.35 0.38 0.38 0.40 0.41 0.43 0.44 0.45 0.46 0.47 0.50
0.17 0.15 0.15 0.14 0.12 0.12 0.14 0.15 0.13 0.14 0.16 0.16 0.16 0.18 0.20 0.22 0.22 0.21 0.18 0.17 0.19 0.24 0.22 0.19 0.21 0.26 0.33 0.27 0.21 0.22 0.24 0.26 0.27 0.31 0.36 0.41 0.44 0.46 0.48 0.47 0.47 0.49 0.51 0.54
0.19 0.17 0.15 0.14 0.13 0.15 0.18 0.17 0.16 0.15 0.16 0.17 0.16 0.15 0.17 0.20 0.24 0.23 0.22 0.24 0.27 0.28 0.24 0.25 0.29 0.35 0.38 0.30 0.27 0.27 0.28 0.29 0.29 0.29 0.32 0.37 0.42 0.45 0.47 0.49 0.51 0.52 0.51 0.51
0.19 0.18 0.18 0.18 0.21 0.22 0.20 0.19 0.20 0.18 0.19 0.22 0.21 0.18 0.17 0.20 0.25 0.27 0.25 0.25 0.31 0.33 0.29 0.31 0.35 0.39 0.37 0.33 0.34 0.34 0.35 0.38 0.39 0.39 0.37 0.39 0.43 0.48 0.51 0.54 0.57 0.60 0.59 0.56
0.21 0.21 0.23 0.26 0.26 0.24 0.23 0.23 0.22 0.21 0.21 0.22 0.22 0.20 0.19 0.20 0.21 0.23 0.24 0.26 0.29 0.36 0.38 0.37 0.36 0.37 0.38 0.40 0.42 0.42 0.41 0.41 0.42 0.42 0.42 0.46 0.50 0.54 0.59 0.63 0.64 0.67 0.66 0.62
0.23 0.24 0.26 0.25 0.24 0.25 0.26 0.26 0.24 0.22 0.22 0.23 0.24 0.21 0.21 0.23 0.24 0.25 0.27 0.30 0.32 0.36 0.42 0.47 0.46 0.46 0.49 0.48 0.48 0.47 0.48 0.49 0.49 0.50 0.51 0.53 0.56 0.58 0.62 0.67 0.70 0.73 0.74 0.72